26-02-2023, 00:00:06,     47,    0.0,    0.0,   0.00,   0.00, 1019.0,   92.7, -999.0
26-02-2023, 00:00:16,     47,    0.5,   -0.1,   0.00,   0.00, 1019.1,   92.3, -999.0
26-02-2023, 00:00:26,     46,    0.1,    0.0,   0.00,   0.00, 1019.1,   91.6, -999.0
26-02-2023, 00:00:36,     46,    0.0,   -0.1,   0.00,   0.00, 1019.0,   90.5, -999.0
26-02-2023, 00:00:46,     47,    0.0,   -0.2,   0.00,   0.00, 1019.0,   89.9, -999.0
26-02-2023, 00:00:56,     47,    0.1,   -0.1,   0.00,   0.00, 1019.1,   89.3, -999.0
26-02-2023, 00:01:06,     47,    0.0,   -0.1,   0.00,   0.00, 1019.0,   88.5, -999.0
26-02-2023, 00:01:16,     46,    0.0,   -0.2,   0.00,   0.00, 1019.0,   88.4, -999.0
26-02-2023, 00:01:26,     47,    0.0,   -0.2,   0.00,   0.00, 1019.0,   88.4, -999.0
26-02-2023, 00:01:36,     47,    0.0,   -0.2,   0.00,   0.00, 1019.0,   88.2, -999.0
26-02-2023, 00:01:46,     47,    0.4,   -0.1,   0.00,   0.00, 1019.0,   88.5, -999.0
26-02-2023, 00:01:56,     46,    0.1,   -0.2,   0.00,   0.00, 1019.0,   88.1, -999.0
26-02-2023, 00:02:06,     46,    0.0,   -0.2,   0.00,   0.00, 1018.9,   87.9, -999.0
26-02-2023, 00:02:16,     46,    0.0,   -0.2,   0.00,   0.00, 1018.9,   87.7, -999.0
26-02-2023, 00:02:26,     47,    0.0,   -0.3,   0.00,   0.00, 1018.9,   87.7, -999.0
26-02-2023, 00:02:36,     46,    0.0,   -0.1,   0.00,   0.00, 1018.9,   87.7, -999.0
26-02-2023, 00:02:46,     46,    0.0,   -0.2,   0.00,   0.00, 1018.8,   87.8, -999.0
26-02-2023, 00:02:56,     46,    0.0,   -0.2,   0.00,   0.00, 1018.9,   87.6, -999.0
26-02-2023, 00:03:05,     47,    0.2,   -0.1,   0.00,   0.00, 1018.9,   87.9, -999.0
26-02-2023, 00:03:16,     47,    0.4,   -0.1,   0.00,   0.00, 1019.0,   87.9, -999.0
26-02-2023, 00:03:26,     46,    0.6,   -0.1,   0.00,   0.00, 1019.0,   87.8, -999.0
26-02-2023, 00:03:36,     46,    0.2,   -0.1,   0.00,   0.00, 1018.9,   87.6, -999.0
26-02-2023, 00:03:45,     46,    0.0,   -0.2,   0.00,   0.00, 1018.8,   87.4, -999.0
26-02-2023, 00:03:56,     46,    0.0,   -0.2,   0.00,   0.00, 1018.8,   87.6, -999.0
26-02-2023, 00:04:06,     46,    0.0,   -0.1,   0.00,   0.00, 1018.8,   87.8, -999.0
26-02-2023, 00:04:16,     46,    0.0,   -0.1,   0.00,   0.00, 1018.8,   87.7, -999.0
26-02-2023, 00:04:25,     46,    0.0,   -0.2,   0.00,   0.00, 1018.8,   87.6, -999.0
26-02-2023, 00:04:36,     46,    0.0,   -0.2,   0.00,   0.00, 1018.8,   87.5, -999.0
26-02-2023, 00:04:46,     46,    0.0,   -0.1,   0.00,   0.00, 1018.8,   87.5, -999.0
26-02-2023, 00:04:55,     46,    0.0,   -0.2,   0.00,   0.00, 1018.8,   87.9, -999.0
26-02-2023, 00:05:06,     46,    0.0,   -0.1,   0.00,   0.00, 1018.8,   87.9, -999.0
26-02-2023, 00:05:16,     47,    0.0,   -0.1,   0.00,   0.00, 1018.8,   87.7, -999.0
26-02-2023, 00:05:25,     47,    0.0,   -0.2,   0.00,   0.00, 1018.8,   87.5, -999.0
26-02-2023, 00:05:35,     46,    0.0,   -0.2,   0.00,   0.00, 1018.8,   87.4, -999.0
26-02-2023, 00:05:46,     46,    0.0,   -0.1,   0.00,   0.00, 1018.9,   87.4, -999.0
26-02-2023, 00:05:56,     46,    0.0,   -0.2,   0.00,   0.00, 1018.8,   87.2, -999.0
26-02-2023, 00:06:05,     46,    0.0,   -0.2,   0.00,   0.00, 1018.9,   87.1, -999.0
26-02-2023, 00:06:15,     46,    0.0,   -0.2,   0.00,   0.00, 1018.8,   86.9, -999.0
26-02-2023, 00:06:26,     46,    0.0,   -0.2,   0.00,   0.00, 1018.8,   86.9, -999.0
26-02-2023, 00:06:35,     46,    0.0,   -0.2,   0.00,   0.00, 1018.8,   86.8, -999.0
26-02-2023, 00:06:45,     47,    0.0,   -0.3,   0.00,   0.00, 1018.8,   86.8, -999.0
26-02-2023, 00:06:55,     46,    0.0,   -0.2,   0.00,   0.00, 1018.8,   86.8, -999.0
26-02-2023, 00:07:06,     46,    0.0,   -0.3,   0.00,   0.00, 1018.8,   86.8, -999.0
26-02-2023, 00:07:15,     46,    0.0,   -0.3,   0.00,   0.00, 1018.8,   86.9, -999.0
26-02-2023, 00:07:25,     46,    0.0,   -0.2,   0.00,   0.00, 1018.8,   86.8, -999.0
26-02-2023, 00:07:35,     47,    0.0,   -0.4,   0.00,   0.00, 1018.9,   86.7, -999.0
26-02-2023, 00:07:45,     46,    0.0,   -0.3,   0.00,   0.00, 1018.9,   86.7, -999.0
26-02-2023, 00:07:55,     46,    0.0,   -0.3,   0.00,   0.00, 1018.8,   86.6, -999.0
26-02-2023, 00:08:05,     46,    0.0,   -0.3,   0.00,   0.00, 1018.9,   86.7, -999.0
26-02-2023, 00:08:16,     46,    0.0,   -0.3,   0.00,   0.00, 1018.9,   86.8, -999.0
26-02-2023, 00:08:25,     46,    0.0,   -0.3,   0.00,   0.00, 1018.8,   86.8, -999.0
26-02-2023, 00:08:35,    358,    0.1,   -0.2,   0.00,   0.00, 1019.0,   87.1, -999.0
26-02-2023, 00:08:45,    356,    0.0,   -0.3,   0.00,   0.00, 1018.9,   87.0, -999.0
26-02-2023, 00:08:55,    356,    0.0,   -0.3,   0.00,   0.00, 1018.9,   87.1, -999.0
26-02-2023, 00:09:05,    355,    0.0,   -0.3,   0.00,   0.00, 1018.9,   87.2, -999.0
26-02-2023, 00:09:15,    356,    0.0,   -0.4,   0.00,   0.00, 1018.8,   87.2, -999.0
26-02-2023, 00:09:25,    356,    0.0,   -0.4,   0.00,   0.00, 1018.9,   87.1, -999.0
26-02-2023, 00:09:35,      0,    0.0,   -0.3,   0.00,   0.00, 1018.9,   87.3, -999.0
26-02-2023, 00:09:45,      0,    0.0,   -0.3,   0.00,   0.00, 1018.9,   87.2, -999.0
26-02-2023, 00:09:55,      0,    0.0,   -0.3,   0.00,   0.00, 1018.9,   87.4, -999.0
26-02-2023, 00:10:05,      0,    0.0,   -0.3,   0.00,   0.00, 1018.9,   87.5, -999.0
26-02-2023, 00:10:15,      0,    0.0,   -0.3,   0.00,   0.00, 1018.9,   87.4, -999.0
26-02-2023, 00:10:25,      0,    0.0,   -0.3,   0.00,   0.00, 1018.9,   87.5, -999.0
26-02-2023, 00:10:35,      0,    0.0,   -0.3,   0.00,   0.00, 1018.9,   87.4, -999.0
26-02-2023, 00:10:45,      0,    0.0,   -0.3,   0.00,   0.00, 1018.9,   87.4, -999.0
26-02-2023, 00:10:55,      0,    0.0,   -0.2,   0.00,   0.00, 1018.8,   87.3, -999.0
26-02-2023, 00:11:05,      0,    0.0,   -0.3,   0.00,   0.00, 1018.9,   87.3, -999.0
26-02-2023, 00:11:15,      0,    0.0,   -0.4,   0.00,   0.00, 1018.9,   87.2, -999.0
26-02-2023, 00:11:25,      0,    0.0,   -0.5,   0.00,   0.00, 1018.9,   87.2, -999.0
26-02-2023, 00:11:35,      0,    0.0,   -0.4,   0.00,   0.00, 1018.9,   87.2, -999.0
26-02-2023, 00:11:45,      0,    0.0,   -0.4,   0.00,   0.00, 1018.9,   87.1, -999.0
26-02-2023, 00:11:55,      0,    0.0,   -0.3,   0.00,   0.00, 1018.8,   87.2, -999.0
26-02-2023, 00:12:05,      0,    0.0,   -0.3,   0.00,   0.00, 1018.8,   87.4, -999.0
26-02-2023, 00:12:15,      0,    0.0,   -0.3,   0.00,   0.00, 1018.8,   87.7, -999.0
26-02-2023, 00:12:25,      0,    0.0,   -0.3,   0.00,   0.00, 1018.8,   88.0, -999.0
26-02-2023, 00:12:35,      0,    0.0,   -0.3,   0.00,   0.00, 1018.8,   88.1, -999.0
26-02-2023, 00:12:45,      0,    0.0,   -0.4,   0.00,   0.00, 1018.8,   88.1, -999.0
26-02-2023, 00:12:55,      0,    0.0,   -0.4,   0.00,   0.00, 1018.8,   88.1, -999.0
26-02-2023, 00:13:05,      9,    0.0,   -0.4,   0.00,   0.00, 1018.8,   87.9, -999.0
26-02-2023, 00:13:15,      0,    0.0,   -0.4,   0.00,   0.00, 1018.8,   87.8, -999.0
26-02-2023, 00:13:25,      0,    0.0,   -0.4,   0.00,   0.00, 1018.8,   87.7, -999.0
26-02-2023, 00:13:35,      0,    0.0,   -0.4,   0.00,   0.00, 1018.8,   87.7, -999.0
26-02-2023, 00:13:45,      0,    0.0,   -0.4,   0.00,   0.00, 1018.9,   87.6, -999.0
26-02-2023, 00:13:55,      0,    0.0,   -0.3,   0.00,   0.00, 1018.9,   87.5, -999.0
26-02-2023, 00:14:05,      0,    0.0,   -0.5,   0.00,   0.00, 1018.8,   87.6, -999.0
26-02-2023, 00:14:15,      0,    0.0,   -0.4,   0.00,   0.00, 1018.8,   87.7, -999.0
26-02-2023, 00:14:25,      0,    0.0,   -0.4,   0.00,   0.00, 1018.9,   87.9, -999.0
26-02-2023, 00:14:35,      0,    0.0,   -0.4,   0.00,   0.00, 1018.8,   87.9, -999.0
26-02-2023, 00:14:45,      0,    0.0,   -0.4,   0.00,   0.00, 1018.9,   88.2, -999.0
26-02-2023, 00:14:55,      0,    0.0,   -0.3,   0.00,   0.00, 1018.8,   88.8, -999.0
26-02-2023, 00:15:05,      0,    0.0,   -0.4,   0.00,   0.00, 1018.9,   89.2, -999.0
26-02-2023, 00:15:14,      0,    0.0,   -0.4,   0.00,   0.00, 1018.8,   89.2, -999.0
26-02-2023, 00:15:25,      0,    0.0,   -0.4,   0.00,   0.00, 1018.9,   89.1, -999.0
26-02-2023, 00:15:35,      0,    0.0,   -0.4,   0.00,   0.00, 1018.8,   88.9, -999.0
26-02-2023, 00:15:45,      0,    0.0,   -0.4,   0.00,   0.00, 1018.9,   88.8, -999.0
26-02-2023, 00:15:54,      0,    0.0,   -0.4,   0.00,   0.00, 1018.8,   88.8, -999.0
26-02-2023, 00:16:05,      0,    0.0,   -0.4,   0.00,   0.00, 1018.8,   88.7, -999.0
26-02-2023, 00:16:15,      0,    0.0,   -0.4,   0.00,   0.00, 1018.9,   88.8, -999.0
26-02-2023, 00:16:24,      0,    0.0,   -0.5,   0.00,   0.00, 1018.8,   88.9, -999.0
26-02-2023, 00:16:34,      0,    0.0,   -0.4,   0.00,   0.00, 1018.9,   89.0, -999.0
26-02-2023, 00:16:45,      0,    0.0,   -0.4,   0.00,   0.00, 1018.9,   88.9, -999.0
26-02-2023, 00:16:55,      2,    0.0,   -0.4,   0.00,   0.00, 1018.9,   88.9, -999.0
26-02-2023, 00:17:04,      0,    0.0,   -0.4,   0.00,   0.00, 1018.9,   88.7, -999.0
26-02-2023, 00:17:15,      8,    0.0,   -0.4,   0.00,   0.00, 1018.8,   88.7, -999.0
26-02-2023, 00:17:25,      0,    0.0,   -0.5,   0.00,   0.00, 1018.9,   88.6, -999.0
26-02-2023, 00:17:34,      0,    0.0,   -0.6,   0.00,   0.00, 1018.8,   88.5, -999.0
26-02-2023, 00:17:44,      0,    0.0,   -0.5,   0.00,   0.00, 1018.9,   88.5, -999.0
26-02-2023, 00:17:55,      0,    0.0,   -0.5,   0.00,   0.00, 1018.8,   88.5, -999.0
26-02-2023, 00:18:05,      0,    0.0,   -0.5,   0.00,   0.00, 1018.9,   88.4, -999.0
26-02-2023, 00:18:14,      0,    0.0,   -0.5,   0.00,   0.00, 1018.9,   88.7, -999.0
26-02-2023, 00:18:24,      0,    0.0,   -0.5,   0.00,   0.00, 1018.9,   89.2, -999.0
26-02-2023, 00:18:35,      0,    0.0,   -0.5,   0.00,   0.00, 1018.9,   89.4, -999.0
26-02-2023, 00:18:44,      0,    0.0,   -0.6,   0.00,   0.00, 1018.9,   89.5, -999.0
26-02-2023, 00:18:54,    348,    0.3,   -0.6,   0.00,   0.00, 1018.9,   89.9, -999.0
26-02-2023, 00:19:04,    348,    0.0,   -0.5,   0.00,   0.00, 1018.9,   90.1, -999.0
26-02-2023, 00:19:14,    348,    0.0,   -0.6,   0.00,   0.00, 1018.8,   90.6, -999.0
26-02-2023, 00:19:24,    348,    0.0,   -0.5,   0.00,   0.00, 1018.9,   90.9, -999.0
26-02-2023, 00:19:34,    348,    0.0,   -0.5,   0.00,   0.00, 1018.9,   90.9, -999.0
26-02-2023, 00:19:44,    348,    0.0,   -0.5,   0.00,   0.00, 1018.9,   90.9, -999.0
26-02-2023, 00:19:54,    348,    0.0,   -0.5,   0.00,   0.00, 1018.8,   90.8, -999.0
26-02-2023, 00:20:04,    348,    0.0,   -0.5,   0.00,   0.00, 1018.8,   90.7, -999.0
26-02-2023, 00:20:14,    348,    0.0,   -0.5,   0.00,   0.00, 1018.8,   90.6, -999.0
26-02-2023, 00:20:24,    348,    0.0,   -0.5,   0.00,   0.00, 1018.8,   90.6, -999.0
26-02-2023, 00:20:34,    348,    0.0,   -0.5,   0.00,   0.00, 1018.8,   90.6, -999.0
26-02-2023, 00:20:44,    348,    0.0,   -0.5,   0.00,   0.00, 1018.8,   90.9, -999.0
26-02-2023, 00:20:54,    349,    0.0,   -0.5,   0.00,   0.00, 1018.8,   91.1, -999.0
26-02-2023, 00:21:04,    348,    0.0,   -0.5,   0.00,   0.00, 1018.9,   91.2, -999.0
26-02-2023, 00:21:14,    348,    0.0,   -0.6,   0.00,   0.00, 1018.9,   91.2, -999.0
26-02-2023, 00:21:24,    348,    0.0,   -0.5,   0.00,   0.00, 1018.9,   91.2, -999.0
26-02-2023, 00:21:34,    348,    0.0,   -0.6,   0.00,   0.00, 1018.8,   91.0, -999.0
26-02-2023, 00:21:44,    348,    0.0,   -0.6,   0.00,   0.00, 1018.9,   91.1, -999.0
26-02-2023, 00:21:54,    348,    0.0,   -0.7,   0.00,   0.00, 1018.9,   91.5, -999.0
26-02-2023, 00:22:04,    348,    0.0,   -0.6,   0.00,   0.00, 1018.9,   91.8, -999.0
26-02-2023, 00:22:14,    348,    0.0,   -0.6,   0.00,   0.00, 1018.9,   92.2, -999.0
26-02-2023, 00:22:24,    348,    0.0,   -0.7,   0.00,   0.00, 1018.9,   92.2, -999.0
26-02-2023, 00:22:34,    348,    0.0,   -0.6,   0.00,   0.00, 1018.9,   92.2, -999.0
26-02-2023, 00:22:44,    348,    0.0,   -0.5,   0.00,   0.00, 1018.9,   92.8, -999.0
26-02-2023, 00:22:54,    348,    0.0,   -0.5,   0.00,   0.00, 1018.9,   93.6, -999.0
26-02-2023, 00:23:04,    348,    0.0,   -0.4,   0.00,   0.00, 1018.9,   94.9, -999.0
26-02-2023, 00:23:14,    348,    0.0,   -0.5,   0.00,   0.00, 1018.9,   96.3, -999.0
26-02-2023, 00:23:24,    348,    0.0,   -0.4,   0.00,   0.00, 1018.9,   96.9, -999.0
26-02-2023, 00:23:34,    348,    0.0,   -0.5,   0.00,   0.00, 1018.9,   96.9, -999.0
26-02-2023, 00:23:44,    348,    0.0,   -0.5,   0.00,   0.00, 1018.9,   96.5, -999.0
26-02-2023, 00:23:54,    348,    0.0,   -0.5,   0.00,   0.00, 1018.9,   96.4, -999.0
26-02-2023, 00:24:04,    348,    0.0,   -0.5,   0.00,   0.00, 1018.9,   96.2, -999.0
26-02-2023, 00:24:14,    348,    0.0,   -0.5,   0.00,   0.00, 1018.9,   96.4, -999.0
26-02-2023, 00:24:24,    348,    0.0,   -0.5,   0.00,   0.00, 1018.9,   96.8, -999.0
26-02-2023, 00:24:34,    348,    0.0,   -0.5,   0.00,   0.00, 1018.9,   97.1, -999.0
26-02-2023, 00:24:44,    348,    0.0,   -0.5,   0.00,   0.00, 1018.9,   97.3, -999.0
26-02-2023, 00:24:54,    348,    0.0,   -0.4,   0.00,   0.00, 1018.9,   98.5, -999.0
26-02-2023, 00:25:04,    348,    0.0,   -0.5,   0.00,   0.00, 1018.9,   98.6, -999.0
26-02-2023, 00:25:14,    348,    0.0,   -0.4,   0.00,   0.00, 1018.9,   98.6, -999.0
26-02-2023, 00:25:24,    348,    0.0,   -0.5,   0.00,   0.00, 1018.9,   98.6, -999.0
26-02-2023, 00:25:34,    348,    0.0,   -0.4,   0.00,   0.00, 1018.9,   98.6, -999.0
26-02-2023, 00:25:44,    348,    0.0,   -0.5,   0.00,   0.00, 1018.9,   98.7, -999.0
26-02-2023, 00:25:54,    348,    0.0,   -0.5,   0.00,   0.00, 1018.9,   98.6, -999.0
26-02-2023, 00:26:04,    348,    0.0,   -0.5,   0.00,   0.00, 1018.9,   98.4, -999.0
26-02-2023, 00:26:14,    348,    0.0,   -0.4,   0.00,   0.00, 1018.9,   98.3, -999.0
26-02-2023, 00:26:24,    348,    0.0,   -0.5,   0.00,   0.00, 1018.9,   98.1, -999.0
26-02-2023, 00:26:34,    348,    0.0,   -0.5,   0.00,   0.00, 1018.9,   97.7, -999.0
26-02-2023, 00:26:43,    348,    0.0,   -0.5,   0.00,   0.00, 1018.9,   97.5, -999.0
26-02-2023, 00:26:54,    348,    0.0,   -0.4,   0.00,   0.00, 1018.9,   97.4, -999.0
26-02-2023, 00:27:04,    348,    0.0,   -0.5,   0.00,   0.00, 1018.9,   97.4, -999.0
26-02-2023, 00:27:14,    348,    0.0,   -0.5,   0.00,   0.00, 1018.9,   97.4, -999.0
26-02-2023, 00:27:23,    348,    0.0,   -0.5,   0.00,   0.00, 1018.9,   97.3, -999.0
26-02-2023, 00:27:34,    349,    0.0,   -0.5,   0.00,   0.00, 1018.9,   97.1, -999.0
26-02-2023, 00:27:44,    348,    0.0,   -0.5,   0.00,   0.00, 1018.8,   96.9, -999.0
26-02-2023, 00:27:53,    348,    0.0,   -0.5,   0.00,   0.00, 1018.9,   97.0, -999.0
26-02-2023, 00:28:03,    348,    0.0,   -0.6,   0.00,   0.00, 1018.9,   97.7, -999.0
26-02-2023, 00:28:14,    348,    0.0,   -0.5,   0.00,   0.00, 1018.9,   98.1, -999.0
26-02-2023, 00:28:24,    348,    0.0,   -0.5,   0.00,   0.00, 1018.9,   98.4, -999.0
26-02-2023, 00:28:33,    348,    0.0,   -0.5,   0.00,   0.00, 1018.9,   98.7, -999.0
26-02-2023, 00:28:44,    346,    0.0,   -0.5,   0.00,   0.00, 1018.9,   98.7, -999.0
26-02-2023, 00:28:54,    346,    0.0,   -0.5,   0.00,   0.00, 1018.9,   98.7, -999.0
26-02-2023, 00:29:03,    346,    0.0,   -0.6,   0.00,   0.00, 1018.9,   98.6, -999.0
26-02-2023, 00:29:13,    346,    0.0,   -0.3,   0.00,   0.00, 1018.9,   98.5, -999.0
26-02-2023, 00:29:23,     14,    0.1,   -0.4,   0.00,   0.00, 1018.9,   98.7, -999.0
26-02-2023, 00:29:34,     14,    0.0,   -0.4,   0.00,   0.00, 1018.9,   98.6, -999.0
26-02-2023, 00:29:43,     14,    0.0,   -0.6,   0.00,   0.00, 1018.9,   98.6, -999.0
26-02-2023, 00:29:53,     14,    0.0,   -0.5,   0.00,   0.00, 1018.9,   98.6, -999.0
26-02-2023, 00:30:03,     14,    0.0,   -0.4,   0.00,   0.00, 1018.9,   98.6, -999.0
26-02-2023, 00:30:14,     14,    0.0,   -0.4,   0.00,   0.00, 1018.9,   98.7, -999.0
26-02-2023, 00:30:23,     14,    0.0,   -0.5,   0.00,   0.00, 1018.9,   98.6, -999.0
26-02-2023, 00:30:33,     14,    0.0,   -0.5,   0.00,   0.00, 1018.9,   98.6, -999.0
26-02-2023, 00:30:44,     14,    0.0,   -0.5,   0.00,   0.00, 1018.9,   98.6, -999.0
26-02-2023, 00:30:53,     14,    0.0,   -0.5,   0.00,   0.00, 1018.9,   98.7, -999.0
26-02-2023, 00:31:03,     14,    0.0,   -0.5,   0.00,   0.00, 1018.9,   98.6, -999.0
26-02-2023, 00:31:13,     15,    0.0,   -0.5,   0.00,   0.00, 1018.9,   98.6, -999.0
26-02-2023, 00:31:23,     14,    0.0,   -0.5,   0.00,   0.00, 1018.9,   98.6, -999.0
26-02-2023, 00:31:33,     14,    0.0,   -0.6,   0.00,   0.00, 1018.9,   98.6, -999.0
26-02-2023, 00:31:43,     14,    0.0,   -0.5,   0.00,   0.00, 1018.9,   98.7, -999.0
26-02-2023, 00:31:53,     14,    0.0,   -0.6,   0.00,   0.00, 1018.9,   98.7, -999.0
26-02-2023, 00:32:03,     14,    0.0,   -0.5,   0.00,   0.00, 1018.9,   98.6, -999.0
26-02-2023, 00:32:13,     14,    0.0,   -0.5,   0.00,   0.00, 1018.8,   98.6, -999.0
26-02-2023, 00:32:23,     14,    0.0,   -0.6,   0.00,   0.00, 1018.8,   98.6, -999.0
26-02-2023, 00:32:33,     14,    0.0,   -0.6,   0.00,   0.00, 1018.9,   98.6, -999.0
26-02-2023, 00:32:43,     15,    0.0,   -0.6,   0.00,   0.00, 1018.8,   98.6, -999.0
26-02-2023, 00:32:53,     14,    0.0,   -0.6,   0.00,   0.00, 1018.8,   98.7, -999.0
26-02-2023, 00:33:03,     14,    0.0,   -0.6,   0.00,   0.00, 1018.9,   98.7, -999.0
26-02-2023, 00:33:13,     14,    0.0,   -0.8,   0.00,   0.00, 1018.9,   98.6, -999.0
26-02-2023, 00:33:23,      4,    0.2,   -0.7,   0.00,   0.00, 1018.9,   98.8, -999.0
26-02-2023, 00:33:33,      0,    0.0,   -0.6,   0.00,   0.00, 1018.9,   98.7, -999.0
26-02-2023, 00:33:43,      0,    0.0,   -0.5,   0.00,   0.00, 1018.9,   98.7, -999.0
26-02-2023, 00:33:53,      0,    0.0,   -0.6,   0.00,   0.00, 1018.9,   98.6, -999.0
26-02-2023, 00:34:03,      0,    0.0,   -0.6,   0.00,   0.00, 1018.9,   98.6, -999.0
26-02-2023, 00:34:13,      0,    0.0,   -0.6,   0.00,   0.00, 1018.9,   98.6, -999.0
26-02-2023, 00:34:23,      0,    0.0,   -0.5,   0.00,   0.00, 1018.9,   98.6, -999.0
26-02-2023, 00:34:33,      0,    0.0,   -0.6,   0.00,   0.00, 1018.9,   98.6, -999.0
26-02-2023, 00:34:43,      0,    0.0,   -0.6,   0.00,   0.00, 1018.9,   98.6, -999.0
26-02-2023, 00:34:53,      0,    0.0,   -0.7,   0.00,   0.00, 1018.9,   98.6, -999.0
26-02-2023, 00:35:03,      0,    0.0,   -0.6,   0.00,   0.00, 1018.9,   98.7, -999.0
26-02-2023, 00:35:13,      0,    0.0,   -0.7,   0.00,   0.00, 1018.9,   98.6, -999.0
26-02-2023, 00:35:23,      0,    0.0,   -0.7,   0.00,   0.00, 1018.9,   98.8, -999.0
26-02-2023, 00:35:33,      0,    0.0,   -0.6,   0.00,   0.00, 1018.9,   98.7, -999.0
26-02-2023, 00:35:43,      0,    0.0,   -0.7,   0.00,   0.00, 1018.9,   98.7, -999.0
26-02-2023, 00:35:53,      0,    0.0,   -0.7,   0.00,   0.00, 1018.9,   98.6, -999.0
26-02-2023, 00:36:03,      0,    0.0,   -0.6,   0.00,   0.00, 1018.9,   98.7, -999.0
26-02-2023, 00:36:13,      0,    0.0,   -0.7,   0.00,   0.00, 1018.9,   98.6, -999.0
26-02-2023, 00:36:23,      0,    0.0,   -0.8,   0.00,   0.00, 1018.9,   98.6, -999.0
26-02-2023, 00:36:33,      0,    0.0,   -0.7,   0.00,   0.00, 1018.9,   98.5, -999.0
26-02-2023, 00:36:43,      0,    0.0,   -0.7,   0.00,   0.00, 1018.9,   98.6, -999.0
26-02-2023, 00:36:53,      0,    0.0,   -0.7,   0.00,   0.00, 1018.9,   98.5, -999.0
26-02-2023, 00:37:03,    329,    0.5,   -0.7,   0.00,   0.00, 1018.9,   98.9, -999.0
26-02-2023, 00:37:13,    330,    0.4,   -0.7,   0.00,   0.00, 1018.9,   98.9, -999.0
26-02-2023, 00:37:23,    330,    0.0,   -0.7,   0.00,   0.00, 1018.9,   98.7, -999.0
26-02-2023, 00:37:33,    331,    0.0,   -0.6,   0.00,   0.00, 1018.9,   98.6, -999.0
26-02-2023, 00:37:43,    331,    0.0,   -0.6,   0.00,   0.00, 1018.9,   98.6, -999.0
26-02-2023, 00:37:53,    331,    0.0,   -0.7,   0.00,   0.00, 1018.9,   98.6, -999.0
26-02-2023, 00:38:03,    331,    0.0,   -0.7,   0.00,   0.00, 1018.9,   98.6, -999.0
26-02-2023, 00:38:13,    331,    0.0,   -0.7,   0.00,   0.00, 1018.9,   98.6, -999.0
26-02-2023, 00:38:22,    331,    0.0,   -0.9,   0.00,   0.00, 1018.9,   98.6, -999.0
26-02-2023, 00:38:33,    331,    0.0,   -0.7,   0.00,   0.00, 1018.9,   98.6, -999.0
26-02-2023, 00:38:43,    332,    0.0,   -0.7,   0.00,   0.00, 1018.9,   98.6, -999.0
26-02-2023, 00:38:53,    331,    0.0,   -0.7,   0.00,   0.00, 1018.9,   98.6, -999.0
26-02-2023, 00:39:02,    332,    0.0,   -0.7,   0.00,   0.00, 1018.9,   98.6, -999.0
26-02-2023, 00:39:13,    332,    0.0,   -0.7,   0.00,   0.00, 1018.9,   98.6, -999.0
26-02-2023, 00:39:23,    332,    0.0,   -0.7,   0.00,   0.00, 1018.9,   98.6, -999.0
26-02-2023, 00:39:32,    332,    0.0,   -0.7,   0.00,   0.00, 1018.9,   98.6, -999.0
26-02-2023, 00:39:42,    331,    0.0,   -0.7,   0.00,   0.00, 1018.9,   98.6, -999.0
26-02-2023, 00:39:53,    331,    0.0,   -0.8,   0.00,   0.00, 1018.9,   98.6, -999.0
26-02-2023, 00:40:03,    331,    0.0,   -0.7,   0.00,   0.00, 1018.9,   98.6, -999.0
26-02-2023, 00:40:12,    332,    0.0,   -0.6,   0.00,   0.00, 1018.9,   98.7, -999.0
26-02-2023, 00:40:23,    332,    0.0,   -0.7,   0.00,   0.00, 1018.9,   98.7, -999.0
26-02-2023, 00:40:33,    332,    0.0,   -0.6,   0.00,   0.00, 1018.9,   98.6, -999.0
26-02-2023, 00:40:42,    331,    0.0,   -0.7,   0.00,   0.00, 1018.9,   98.6, -999.0
26-02-2023, 00:40:52,    331,    0.0,   -0.8,   0.00,   0.00, 1018.9,   98.6, -999.0
26-02-2023, 00:41:03,    332,    0.0,   -0.6,   0.00,   0.00, 1018.9,   98.6, -999.0
26-02-2023, 00:41:13,    332,    0.0,   -0.6,   0.00,   0.00, 1018.9,   98.6, -999.0
26-02-2023, 00:41:22,    331,    0.0,   -0.6,   0.00,   0.00, 1018.9,   98.7, -999.0
26-02-2023, 00:41:32,    331,    0.0,   -0.7,   0.00,   0.00, 1019.0,   98.6, -999.0
26-02-2023, 00:41:43,    331,    0.0,   -0.6,   0.00,   0.00, 1018.9,   98.7, -999.0
26-02-2023, 00:41:52,    332,    0.0,   -0.7,   0.00,   0.00, 1018.9,   98.6, -999.0
26-02-2023, 00:42:02,    331,    0.0,   -0.7,   0.00,   0.00, 1018.9,   98.6, -999.0
26-02-2023, 00:42:12,    332,    0.0,   -0.7,   0.00,   0.00, 1018.9,   98.6, -999.0
26-02-2023, 00:42:22,    332,    0.0,   -0.8,   0.00,   0.00, 1018.9,   98.6, -999.0
26-02-2023, 00:42:32,    332,    0.0,   -0.7,   0.00,   0.00, 1018.9,   98.7, -999.0
26-02-2023, 00:42:42,    331,    0.0,   -0.7,   0.00,   0.00, 1018.9,   98.7, -999.0
26-02-2023, 00:42:52,    331,    0.0,   -0.7,   0.00,   0.00, 1018.9,   98.6, -999.0
26-02-2023, 00:43:02,    331,    0.0,   -0.8,   0.00,   0.00, 1018.9,   98.7, -999.0
26-02-2023, 00:43:12,    331,    0.0,   -0.7,   0.00,   0.00, 1018.9,   98.6, -999.0
26-02-2023, 00:43:22,    332,    0.0,   -0.8,   0.00,   0.00, 1018.9,   98.6, -999.0
26-02-2023, 00:43:32,    332,    0.0,   -0.7,   0.00,   0.00, 1018.9,   98.6, -999.0
26-02-2023, 00:43:42,    332,    0.0,   -0.7,   0.00,   0.00, 1018.9,   98.7, -999.0
26-02-2023, 00:43:52,    332,    0.0,   -0.7,   0.00,   0.00, 1018.9,   98.6, -999.0
26-02-2023, 00:44:02,    332,    0.0,   -0.7,   0.00,   0.00, 1018.9,   98.6, -999.0
26-02-2023, 00:44:12,    332,    0.0,   -0.7,   0.00,   0.00, 1018.9,   98.6, -999.0
26-02-2023, 00:44:22,    332,    0.0,   -0.8,   0.00,   0.00, 1018.9,   98.6, -999.0
26-02-2023, 00:44:32,    332,    0.0,   -0.7,   0.00,   0.00, 1018.9,   98.6, -999.0
26-02-2023, 00:44:42,    332,    0.0,   -0.7,   0.00,   0.00, 1018.9,   98.6, -999.0
26-02-2023, 00:44:52,    332,    0.0,   -0.7,   0.00,   0.00, 1018.9,   98.6, -999.0
26-02-2023, 00:45:02,    332,    0.0,   -0.6,   0.00,   0.00, 1018.9,   98.6, -999.0
26-02-2023, 00:45:12,    331,    0.0,   -0.8,   0.00,   0.00, 1018.9,   98.6, -999.0
26-02-2023, 00:45:22,    331,    0.0,   -0.8,   0.00,   0.00, 1018.8,   98.5, -999.0
26-02-2023, 00:45:32,    331,    0.0,   -0.8,   0.00,   0.00, 1018.9,   98.6, -999.0
26-02-2023, 00:45:42,    331,    0.0,   -0.6,   0.00,   0.00, 1018.9,   98.7, -999.0
26-02-2023, 00:45:52,    332,    0.0,   -0.5,   0.00,   0.00, 1018.9,   98.6, -999.0
26-02-2023, 00:46:02,    331,    0.0,   -0.6,   0.00,   0.00, 1018.9,   98.6, -999.0
26-02-2023, 00:46:12,    331,    0.0,   -0.6,   0.00,   0.00, 1018.9,   98.6, -999.0
26-02-2023, 00:46:22,    332,    0.0,   -0.6,   0.00,   0.00, 1018.9,   98.6, -999.0
26-02-2023, 00:46:32,    331,    0.0,   -0.7,   0.00,   0.00, 1018.8,   98.6, -999.0
26-02-2023, 00:46:42,    331,    0.0,   -0.5,   0.00,   0.00, 1018.8,   98.6, -999.0
26-02-2023, 00:46:52,    331,    0.0,   -0.5,   0.00,   0.00, 1018.8,   98.6, -999.0